Temp
-15 -15 -15 -16 -16 -16 -17 -17 -17 -18 -18 -18 -18 -17 -17 -18 -18 -18 -18 -18 -18 -18 -17 -17 -17 -16 -15 -15 -15 -15 -15 -15 -15 -15 -15 -15 -14 -13 -13 -13 -13 -13 -13 -13 -13 -12 -12 -12 -12 -12 -12 -11
-15 -16 -16 -16 -16 -17 -17 -18 -18 -18 -18 -18 -18 -18 -18 -18 -19 -19 -19 -18 -17 -17 -17 -17 -16 -16 -15 -15 -15 -15 -15 -15 -15 -15 -15 -15 -15 -14 -13 -14 -14 -13 -13 -13 -13 -12 -13 -12 -12 -12 -12 -12
-16 -16 -16 -16 -17 -17 -18 -18 -18 -18 -19 -19 -19 -19 -19 -19 -19 -19 -19 -19 -18 -17 -17 -17 -16 -15 -15 -15 -15 -15 -15 -15 -15 -15 -15 -15 -15 -15 -14 -14 -14 -14 -13 -13 -13 -13 -13 -13 -12 -12 -12 -12
-16 -16 -17 -17 -17 -18 -18 -18 -18 -19 -19 -19 -19 -19 -19 -20 -20 -20 -19 -19 -19 -17 -17 -17 -16 -15 -15 -15 -15 -15 -15 -15 -15 -15 -15 -15 -15 -15 -15 -14 -14 -14 -13 -13 -13 -13 -13 -13 -13 -13 -12 -12
-16 -17 -17 -17 -18 -18 -18 -18 -19 -19 -19 -19 -19 -19 -20 -20 -20 -20 -20 -20 -20 -18 -17 -17 -17 -16 -15 -15 -15 -15 -15 -15 -15 -15 -15 -15 -15 -15 -15 -15 -14 -14 -14 -14 -14 -14 -14 -14 -13 -13 -13 -13
-17 -17 -17 -18 -18 -18 -18 -19 -19 -19 -19 -19 -19 -20 -20 -20 -21 -21 -20 -20 -20 -19 -18 -16 -17 -16 -15 -16 -16 -15 -16 -16 -15 -15 -15 -15 -15 -15 -15 -15 -15 -15 -14 -14 -14 -14 -14 -14 -14 -13 -13 -13
-17 -17 -17 -18 -18 -18 -19 -19 -19 -19 -19 -20 -20 -20 -20 -20 -21 -21 -21 -20 -20 -20 -19 -17 -16 -17 -16 -16 -16 -16 -16 -16 -16 -16 -16 -15 -15 -15 -15 -15 -15 -15 -15 -14 -14 -14 -14 -14 -14 -14 -14 -13
-17 -17 -17 -18 -18 -18 -19 -19 -19 -20 -20 -20 -20 -20 -20 -20 -21 -21 -21 -21 -21 -21 -20 -18 -16 -17 -17 -17 -17 -17 -17 -17 -17 -16 -16 -16 -15 -15 -15 -16 -16 -16 -15 -15 -15 -15 -14 -14 -14 -14 -14 -14
-17 -17 -18 -18 -18 -18 -19 -19 -19 -20 -20 -20 -20 -20 -20 -20 -21 -21 -22 -22 -21 -21 -21 -19 -17 -17 -17 -17 -17 -18 -18 -18 -18 -17 -17 -16 -16 -16 -15 -16 -16 -16 -16 -15 -15 -15 -15 -14 -14 -14 -14 -14
-17 -17 -18 -18 -18 -18 -19 -19 -19 -20 -20 -20 -20 -20 -20 -21 -21 -21 -22 -22 -22 -21 -21 -21 -19 -17 -17 -17 -17 -18 -18 -18 -18 -18 -18 -17 -17 -16 -16 -16 -16 -16 -16 -16 -15 -15 -15 -14 -14 -14 -14 -14
-17 -18 -18 -18 -18 -18 -19 -19 -20 -20 -20 -20 -20 -20 -21 -21 -21 -22 -22 -23 -22 -22 -22 -21 -21 -19 -18 -17 -18 -18 -18 -18 -19 -19 -18 -18 -17 -17 -16 -16 -16 -16 -16 -16 -16 -16 -15 -15 -15 -14 -14 -14
-17 -18 -18 -18 -18 -18 -19 -19 -20 -20 -20 -21 -21 -21 -21 -21 -21 -22 -23 -23 -23 -23 -22 -22 -22 -21 -19 -18 -18 -18 -18 -18 -19 -19 -19 -19 -18 -18 -17 -17 -16 -16 -16 -16 -16 -16 -16 -16 -15 -15 -15 -14
-18 -18 -18 -18 -18 -18 -19 -19 -20 -20 -21 -21 -21 -21 -21 -21 -21 -22 -23 -23 -23 -23 -23 -22 -22 -22 -21 -19 -18 -18 -18 -18 -18 -19 -19 -19 -19 -19 -18 -18 -17 -17 -17 -16 -16 -16 -16 -16 -15 -15 -15 -15
-18 -18 -18 -18 -18 -19 -19 -19 -19 -20 -20 -21 -21 -21 -21 -21 -21 -22 -23 -23 -23 -23 -23 -23 -23 -22 -22 -21 -19 -18 -18 -18 -18 -18 -19 -19 -19 -20 -19 -19 -18 -17 -17 -17 -16 -16 -16 -16 -16 -16 -15 -15
-17 -18 -18 -18 -18 -19 -19 -19 -19 -20 -20 -21 -21 -21 -21 -21 -22 -22 -23 -23 -23 -23 -23 -23 -23 -23 -22 -22 -20 -19 -19 -19 -18 -18 -18 -19 -19 -20 -20 -19 -19 -18 -17 -17 -17 -16 -16 -16 -16 -16 -16 -16
-17 -18 -18 -18 -19 -19 -19 -19 -19 -20 -20 -21 -21 -21 -21 -21 -22 -22 -23 -23 -23 -23 -23 -23 -23 -23 -23 -22 -22 -20 -19 -19 -19 -19 -18 -19 -19 -19 -20 -20 -19 -19 -18 -18 -17 -17 -17 -16 -16 -16 -16 -16
-17 -18 -18 -18 -19 -19 -19 -19 -19 -20 -21 -21 -21 -21 -21 -21 -22 -22 -23 -23 -23 -23 -23 -23 -22 -23 -23 -23 -22 -22 -20 -19 -19 -19 -19 -19 -19 -19 -20 -20 -19 -19 -19 -18 -18 -18 -17 -17 -17 -16 -17 -17
-18 -18 -18 -18 -19 -19 -19 -19 -20 -20 -21 -21 -21 -21 -21 -21 -21 -22 -23 -23 -23 -23 -23 -23 -23 -23 -23 -23 -23 -22 -21 -20 -20 -20 -19 -19 -19 -19 -19 -20 -20 -19 -19 -19 -19 -19 -18 -17 -17 -17 -17 -17
-18 -18 -18 -19 -19 -19 -19 -20 -20 -20 -21 -21 -21 -21 -21 -21 -21 -22 -23 -23 -23 -23 -24 -24 -23 -23 -23 -23 -23 -23 -22 -21 -20 -20 -20 -20 -20 -19 -19 -19 -20 -20 -19 -19 -19 -19 -18 -18 -17 -17 -17 -17
-18 -18 -18 -19 -19 -19 -20 -20 -20 -20 -21 -21 -22 -22 -22 -22 -22 -22 -22 -23 -24 -24 -24 -25 -25 -24 -24 -23 -24 -23 -23 -22 -21 -21 -21 -20 -20 -20 -19 -19 -19 -20 -20 -20 -20 -19 -19 -18 -18 -18 -18 -17
-18 -18 -19 -19 -19 -20 -20 -20 -20 -20 -21 -22 -22 -22 -22 -22 -22 -22 -23 -23 -24 -24 -25 -25 -26 -25 -25 -24 -24 -24 -24 -23 -22 -21 -21 -21 -21 -21 -20 -19 -19 -19 -20 -20 -20 -20 -20 -19 -19 -18 -18 -18
-18 -19 -19 -19 -19 -20 -20 -20 -20 -21 -21 -22 -22 -22 -22 -22 -22 -22 -23 -23 -24 -24 -25 -26 -26 -26 -26 -26 -26 -25 -25 -24 -23 -22 -22 -22 -22 -21 -21 -20 -19 -19 -20 -20 -20 -20 -20 -19 -19 -19 -18 -18
-19 -19 -19 -19 -20 -20 -20 -21 -21 -21 -21 -22 -22 -22 -22 -22 -22 -22 -23 -24 -24 -25 -25 -26 -27 -27 -27 -27 -27 -27 -26 -26 -25 -24 -23 -23 -23 -22 -21 -21 -20 -20 -20 -20 -20 -20 -20 -20 -19 -19 -18 -18
-19 -19 -19 -20 -20 -20 -21 -21 -21 -21 -22 -22 -22 -22 -22 -23 -22 -22 -23 -24 -25 -25 -26 -27 -27 -28 -28 -28 -28 -28 -28 -27 -26 -25 -24 -23 -23 -24 -23 -21 -21 -21 -20 -20 -20 -20 -20 -20 -20 -19 -19 -18
-19 -19 -19 -20 -20 -21 -21 -21 -22 -22 -22 -22 -23 -23 -23 -23 -23 -23 -23 -24 -25 -26 -26 -27 -28 -28 -29 -29 -29 -29 -29 -28 -27 -27 -26 -24 -23 -24 -24 -23 -22 -21 -21 -21 -20 -20 -20 -20 -20 -20 -19 -19
-19 -19 -19 -20 -20 -21 -21 -22 -22 -22 -23 -23 -23 -23 -23 -23 -23 -23 -23 -24 -25 -26 -27 -27 -28 -29 -29 -29 -29 -29 -29 -29 -28 -28 -27 -26 -25 -24 -24 -24 -23 -22 -22 -22 -21 -20 -20 -20 -20 -20 -20 -20
-19 -19 -20 -20 -20 -21 -21 -22 -22 -23 -23 -23 -23 -23 -23 -23 -23 -23 -24 -24 -25 -26 -27 -27 -28 -29 -29 -30 -30 -30 -30 -29 -29 -28 -27 -27 -26 -25 -24 -24 -24 -23 -22 -22 -22 -22 -21 -21 -20 -20 -20 -20
-20 -20 -20 -20 -21 -21 -21 -22 -22 -23 -23 -23 -23 -23 -24 -23 -23 -24 -24 -24 -25 -26 -27 -27 -28 -29 -29 -30 -30 -30 -30 -30 -29 -29 -28 -28 -27 -26 -26 -25 -24 -23 -23 -23 -22 -22 -22 -22 -21 -21 -20 -20
-20 -20 -20 -20 -21 -21 -21 -22 -22 -23 -23 -23 -24 -24 -24 -24 -24 -24 -24 -25 -25 -26 -27 -27 -28 -28 -29 -29 -30 -30 -30 -30 -30 -29 -29 -28 -28 -27 -27 -26 -25 -24 -24 -23 -23 -23 -23 -23 -23 -22 -21 -20
-20 -20 -20 -21 -21 -21 -22 -22 -22 -23 -23 -24 -24 -24 -24 -24 -24 -24 -24 -25 -25 -26 -27 -27 -28 -28 -29 -29 -30 -30 -30 -30 -30 -30 -30 -29 -29 -28 -28 -27 -26 -26 -25 -24 -24 -24 -24 -24 -24 -23 -22 -21
-20 -20 -21 -21 -21 -21 -22 -22 -23 -23 -23 -24 -24 -24 -24 -24 -24 -24 -24 -25 -25 -26 -27 -28 -28 -28 -29 -29 -30 -30 -30 -30 -30 -30 -30 -30 -30 -29 -29 -28 -27 -27 -26 -25 -25 -24 -25 -25 -24 -24 -24 -23
Height
5704 5700 5695 5691 5686 5681 5676 5671 5666 5661 5657 5652 5646 5642 5640 5641 5643 5643 5646 5653 5656 5658 5662 5665 5668 5669 5668 5671 5674 5677 5681 5685 5688 5691 5693 5695 5698 5703 5706 5708 5712 5715 5718 5721 5725 5729 5731 5734 5738 5743 5749 5753
5697 5692 5687 5683 5678 5673 5668 5663 5658 5653 5649 5644 5639 5634 5630 5630 5632 5633 5634 5639 5645 5648 5652 5656 5657 5659 5659 5660 5663 5667 5671 5676 5679 5682 5685 5687 5689 5693 5697 5699 5701 5705 5710 5713 5717 5720 5723 5724 5728 5734 5740 5745
5690 5685 5680 5675 5670 5665 5660 5656 5651 5646 5642 5637 5632 5627 5622 5620 5621 5623 5623 5626 5632 5634 5639 5645 5647 5648 5648 5649 5652 5656 5661 5665 5669 5672 5676 5678 5681 5684 5688 5691 5692 5695 5701 5705 5709 5712 5715 5715 5718 5726 5733 5735
5684 5678 5673 5668 5663 5658 5653 5648 5644 5639 5635 5630 5625 5620 5615 5611 5610 5612 5614 5615 5619 5622 5624 5630 5635 5638 5638 5638 5641 5644 5650 5654 5657 5662 5666 5669 5672 5675 5678 5681 5683 5687 5691 5696 5700 5703 5706 5707 5709 5717 5724 5726
5678 5672 5667 5662 5656 5651 5646 5641 5636 5632 5627 5623 5618 5613 5608 5604 5601 5601 5603 5604 5608 5612 5613 5614 5619 5625 5627 5628 5630 5633 5637 5642 5646 5651 5656 5660 5663 5666 5669 5672 5674 5678 5682 5686 5690 5694 5697 5699 5701 5707 5714 5718
5672 5667 5661 5656 5650 5645 5640 5634 5629 5624 5620 5615 5610 5606 5601 5596 5593 5591 5592 5593 5596 5601 5604 5603 5604 5609 5614 5617 5620 5623 5626 5630 5634 5639 5644 5650 5654 5658 5660 5663 5665 5669 5673 5677 5680 5684 5688 5692 5694 5699 5705 5710
5667 5662 5656 5650 5645 5639 5634 5628 5623 5617 5613 5608 5603 5598 5593 5589 5585 5582 5582 5583 5584 5588 5593 5594 5592 5595 5601 5606 5609 5612 5615 5618 5622 5628 5633 5639 5645 5649 5652 5654 5657 5660 5664 5668 5671 5675 5679 5684 5687 5691 5696 5701
5662 5657 5651 5645 5640 5634 5629 5623 5617 5611 5606 5600 5595 5590 5585 5580 5576 5573 5572 5572 5573 5576 5581 5585 5583 5583 5587 5593 5598 5601 5605 5609 5612 5616 5621 5628 5634 5639 5643 5646 5649 5652 5655 5659 5662 5666 5670 5675 5680 5684 5688 5692
5657 5651 5646 5640 5634 5629 5623 5618 5612 5606 5600 5594 5588 5582 5577 5572 5567 5564 5563 5562 5563 5564 5568 5573 5574 5574 5576 5581 5587 5592 5595 5599 5603 5606 5610 5615 5622 5628 5633 5637 5640 5643 5647 5650 5653 5657 5661 5667 5672 5676 5681 5684
5652 5646 5640 5635 5629 5623 5617 5611 5606 5600 5594 5588 5581 5575 5569 5563 5558 5555 5553 5552 5552 5553 5555 5560 5564 5565 5567 5569 5575 5581 5585 5589 5594 5597 5599 5603 5609 5616 5623 5628 5631 5635 5638 5641 5645 5649 5654 5658 5663 5668 5673 5677
5646 5641 5635 5629 5623 5618 5612 5605 5600 5594 5588 5582 5575 5569 5562 5556 5550 5545 5543 5542 5542 5543 5544 5547 5551 5555 5557 5559 5562 5568 5574 5579 5584 5588 5590 5592 5597 5604 5611 5617 5622 5625 5629 5632 5636 5641 5646 5651 5655 5660 5664 5669
5641 5635 5629 5624 5618 5612 5606 5600 5594 5588 5582 5575 5569 5562 5555 5549 5543 5537 5533 5532 5532 5533 5534 5535 5539 5543 5547 5548 5550 5554 5561 5567 5573 5578 5581 5583 5588 5594 5600 5606 5611 5616 5620 5624 5628 5632 5637 5642 5648 5652 5656 5660
5635 5629 5624 5618 5612 5606 5600 5595 5589 5583 5577 5570 5563 5556 5548 5542 5535 5530 5525 5523 5523 5524 5525 5525 5526 5530 5534 5536 5538 5541 5546 5555 5561 5567 5572 5575 5579 5584 5589 5595 5601 5607 5611 5615 5619 5623 5627 5633 5639 5644 5648 5652
5630 5624 5619 5613 5607 5602 5596 5590 5584 5578 5572 5565 5559 5551 5543 5535 5528 5522 5518 5514 5513 5514 5515 5515 5515 5518 5521 5525 5527 5529 5533 5540 5548 5554 5561 5566 5570 5575 5580 5585 5591 5597 5602 5606 5610 5614 5618 5624 5629 5635 5640 5644
5625 5619 5614 5608 5603 5597 5591 5585 5578 5572 5566 5560 5553 5547 5539 5530 5522 5515 5510 5507 5504 5503 5504 5505 5506 5508 5510 5514 5517 5518 5521 5527 5535 5541 5548 5555 5561 5566 5571 5575 5581 5587 5592 5596 5601 5605 5610 5615 5620 5626 5631 5635
5620 5614 5608 5603 5597 5591 5585 5579 5573 5567 5560 5554 5548 5541 5534 5525 5516 5509 5503 5500 5496 5494 5494 5495 5497 5498 5500 5503 5507 5509 5510 5514 5521 5529 5535 5542 5551 5557 5563 5567 5571 5576 5582 5587 5592 5597 5602 5606 5611 5616 5622 5627
5614 5608 5603 5597 5591 5585 5580 5573 5567 5562 5555 5549 5543 5536 5529 5521 5512 5504 5497 5492 5489 5486 5484 5484 5487 5488 5489 5492 5496 5499 5501 5502 5507 5516 5523 5529 5538 5546 5553 5558 5562 5566 5572 5577 5583 5588 5593 5598 5603 5607 5613 5618
5609 5603 5597 5591 5586 5580 5574 5568 5562 5556 5550 5544 5537 5531 5524 5516 5508 5499 5492 5486 5482 5479 5476 5475 5476 5478 5480 5481 5485 5489 5493 5494 5496 5503 5511 5517 5525 5534 5542 5549 5553 5557 5562 5567 5573 5579 5584 5589 5595 5599 5604 5609
5603 5597 5592 5586 5580 5574 5568 5562 5556 5550 5544 5538 5532 5525 5519 5511 5503 5495 5487 5481 5475 5471 5468 5466 5466 5467 5469 5472 5474 5478 5483 5486 5487 5490 5498 5505 5512 5521 5529 5537 5544 5548 5552 5558 5563 5569 5576 5581 5586 5591 5596 5601
5598 5592 5586 5580 5574 5568 5562 5556 5550 5545 5539 5533 5527 5520 5514 5506 5498 5490 5483 5476 5470 5465 5461 5458 5457 5457 5459 5462 5464 5467 5472 5477 5479 5480 5486 5493 5500 5508 5516 5524 5532 5539 5544 5549 5554 5560 5566 5572 5577 5583 5587 5592
5592 5586 5580 5574 5568 5562 5556 5550 5545 5539 5533 5528 5522 5515 5509 5502 5494 5486 5478 5471 5465 5460 5455 5452 5449 5449 5450 5452 5455 5458 5461 5466 5470 5472 5474 5481 5488 5496 5504 5511 5519 5528 5535 5540 5545 5551 5557 5563 5569 5574 5579 5583
5587 5581 5575 5569 5563 5557 5551 5545 5539 5533 5528 5522 5517 5510 5504 5497 5490 5482 5474 5467 5461 5455 5451 5446 5443 5441 5442 5444 5447 5450 5453 5456 5461 5464 5465 5469 5475 5483 5492 5499 5506 5514 5524 5531 5537 5543 5548 5553 5559 5565 5570 5574
5582 5576 5569 5563 5557 5551 5544 5538 5533 5527 5522 5517 5511 5506 5499 5492 5486 5478 5471 5464 5457 5451 5447 5442 5438 5436 5435 5437 5440 5442 5445 5448 5451 5456 5459 5460 5465 5472 5480 5487 5494 5501 5510 5520 5528 5534 5540 5545 5549 5554 5559 5564
5576 5570 5564 5557 5550 5544 5538 5532 5526 5520 5515 5510 5506 5501 5494 5488 5481 5475 5467 5460 5453 5448 5443 5439 5435 5433 5431 5432 5434 5436 5439 5441 5444 5447 5452 5454 5457 5462 5469 5476 5482 5489 5498 5507 5515 5524 5531 5536 5539 5542 5546 5551
5570 5564 5558 5552 5545 5538 5532 5526 5520 5515 5509 5505 5500 5495 5489 5483 5477 5470 5463 5456 5450 5444 5440 5436 5433 5430 5429 5429 5430 5432 5434 5435 5437 5439 5442 5446 5449 5453 5459 5466 5470 5476 5485 5494 5502 5510 5519 5526 5529 5532 5534 5538
5565 5559 5553 5547 5540 5534 5527 5521 5516 5510 5504 5499 5494 5489 5484 5479 5473 5466 5460 5453 5447 5442 5437 5433 5431 5428 5427 5427 5427 5428 5429 5430 5431 5432 5434 5437 5441 5444 5448 5454 5459 5464 5472 5481 5489 5496 5505 5513 5518 5522 5524 5527
5559 5553 5547 5541 5535 5529 5523 5516 5511 5505 5500 5494 5489 5484 5479 5474 5468 5462 5456 5450 5445 5439 5435 5431 5428 5426 5425 5424 5424 5424 5424 5425 5425 5427 5429 5430 5434 5436 5439 5443 5449 5454 5459 5466 5476 5484 5491 5498 5506 5512 5515 5518
5553 5547 5541 5535 5529 5523 5518 5512 5506 5500 5495 5490 5485 5480 5474 5469 5464 5458 5452 5447 5442 5437 5432 5429 5426 5424 5422 5421 5420 5420 5420 5420 5420 5421 5423 5424 5426 5429 5432 5435 5439 5444 5449 5454 5462 5470 5477 5483 5492 5501 5505 5510
5548 5542 5535 5529 5523 5518 5512 5506 5501 5496 5490 5485 5481 5476 5471 5466 5460 5455 5449 5444 5439 5434 5430 5426 5423 5421 5419 5417 5416 5416 5415 5415 5415 5416 5416 5418 5420 5422 5425 5428 5431 5435 5440 5445 5450 5457 5465 5471 5478 5487 5496 5503
5542 5536 5530 5523 5517 5512 5506 5501 5496 5491 5486 5481 5476 5472 5467 5462 5457 5452 5446 5441 5436 5431 5427 5423 5420 5418 5415 5414 5412 5411 5411 5410 5410 5411 5411 5412 5413 5415 5417 5421 5424 5427 5430 5436 5440 5444 5451 5459 5465 5474 5485 5493
5537 5531 5525 5518 5512 5506 5500 5495 5490 5485 5481 5476 5471 5467 5462 5458 5453 5448 5443 5438 5433 5428 5424 5421 5417 5415 5412 5410 5409 5408 5407 5406 5406 5406 5406 5406 5408 5409 5410 5413 5416 5419 5422 5426 5430 5434 5439 5446 5453 5462 5471 5479
Wind_Speed
54 56 57 58 59 59 60 60 61 60 59 58 57 56 57 58 63 78 89 88 83 82 82 80 80 79 78 80 83 82 81 78 75 74 73 75 77 76 74 74 76 75 73 73 74 76 76 74 72 71 70 68
56 57 58 59 59 59 60 60 61 61 59 58 58 56 55 57 58 69 86 92 88 84 84 81 80 82 79 78 80 81 81 80 77 76 75 75 77 77 75 74 76 78 77 75 74 75 76 78 77 73 72 72
57 58 59 60 60 60 60 61 61 61 61 59 58 57 54 55 56 61 77 92 95 88 86 87 84 82 78 76 77 78 79 80 78 77 75 73 73 75 76 76 77 78 79 79 77 76 75 77 79 76 73 74
58 59 60 61 61 61 61 61 62 62 62 61 59 59 55 53 55 57 66 84 98 97 90 92 93 87 79 76 76 75 76 78 78 79 78 73 70 71 74 77 79 79 78 79 80 80 78 77 79 78 75 75
59 60 61 62 62 62 62 62 63 63 63 62 61 60 57 52 53 55 59 72 92 103 98 95 98 95 85 79 78 76 74 75 78 80 81 77 70 70 72 75 77 77 74 74 76 78 79 79 79 78 77 77
60 61 62 62 63 63 63 63 63 64 64 63 63 62 61 54 51 54 55 62 79 98 105 99 97 97 90 84 83 80 75 74 76 79 80 77 73 70 70 71 72 72 71 71 72 72 73 75 77 78 77 77
60 61 62 63 64 64 64 64 64 64 65 64 64 64 64 59 51 52 54 57 68 87 105 107 101 98 94 86 83 80 75 72 74 78 79 77 74 72 70 69 68 67 68 70 71 72 72 73 75 76 76 76
61 62 62 63 64 65 65 65 65 65 65 65 65 65 65 63 54 50 53 54 60 74 95 111 110 104 99 92 85 80 75 70 70 75 78 79 77 75 72 69 66 65 66 69 71 73 74 74 74 75 76 75
63 63 63 64 65 66 66 65 65 65 65 65 65 66 67 65 59 50 51 53 56 65 82 104 116 112 106 100 91 82 77 72 68 70 74 77 79 79 77 73 68 65 65 66 68 70 72 74 74 74 75 76
63 64 65 65 66 67 67 67 66 65 65 65 66 66 68 67 61 53 50 51 53 59 70 89 110 118 113 108 102 90 80 75 70 69 70 73 76 80 81 78 73 69 67 68 68 69 69 71 73 75 75 76
64 65 65 66 67 68 68 68 67 66 65 65 66 66 67 67 62 54 50 50 51 54 62 75 95 114 119 115 111 104 93 82 75 72 70 69 71 76 81 81 77 73 71 71 73 74 74 72 71 73 76 77
64 65 65 66 67 68 69 68 67 66 65 64 65 67 67 67 63 54 51 50 51 51 55 66 81 101 117 121 118 114 108 96 85 78 73 68 66 68 75 80 80 76 74 73 73 76 78 78 75 73 74 77
64 65 65 66 66 67 68 68 67 65 64 64 64 66 68 68 64 54 49 49 50 50 51 58 70 86 106 120 124 121 117 110 99 89 80 73 67 64 67 75 80 78 75 75 75 75 77 79 80 78 75 75
64 65 65 65 66 66 67 67 67 65 64 63 63 64 67 68 65 55 48 48 49 50 50 52 61 75 92 111 124 127 124 119 111 102 93 82 74 68 66 70 76 78 76 76 76 78 78 79 79 79 77 75
64 65 65 65 66 65 66 67 66 65 64 64 62 63 65 66 65 58 47 45 47 49 51 51 55 65 80 98 116 126 127 124 119 113 106 96 85 76 71 69 71 75 77 76 76 78 79 80 80 78 76 75
64 65 66 66 66 65 65 66 66 65 64 63 63 62 64 65 64 59 49 44 44 47 50 52 52 57 69 85 104 119 126 126 124 120 116 109 99 87 78 73 70 71 74 75 76 76 77 79 80 79 75 72
65 65 66 66 65 65 65 65 65 64 63 63 62 62 63 64 64 60 52 45 42 44 48 52 52 54 61 73 90 108 122 127 127 124 122 118 111 100 88 79 74 70 69 71 73 74 77 78 78 78 75 71
65 65 65 66 65 65 64 64 64 63 62 62 62 61 62 63 63 61 54 47 43 41 44 50 54 54 57 65 78 94 111 123 127 126 125 124 119 111 100 89 82 76 70 68 69 73 76 78 78 76 75 72
64 65 65 65 65 64 64 63 63 63 61 61 61 60 61 63 63 61 56 49 44 41 40 44 52 56 56 60 69 82 97 114 124 125 124 125 124 118 112 102 92 85 78 72 69 73 76 77 77 76 76 74
64 65 65 65 64 64 63 63 63 62 61 60 59 59 60 61 62 61 58 51 46 42 38 38 45 54 58 59 64 73 85 100 115 122 122 123 124 120 118 114 105 95 87 81 76 75 75 76 75 74 75 75
64 64 64 64 64 63 63 62 62 62 60 58 58 58 59 60 61 60 58 53 47 43 39 36 38 46 56 59 61 67 76 88 102 115 119 120 121 120 118 119 116 108 98 89 84 80 77 78 76 73 74 76
64 64 64 64 64 63 62 62 61 61 60 58 57 57 58 59 60 60 58 54 49 43 39 35 34 38 47 56 59 62 69 78 90 104 113 115 116 118 118 119 120 118 110 100 91 85 81 81 79 76 77 79
64 64 64 64 64 63 62 61 61 61 60 58 56 56 56 58 59 59 57 54 50 45 40 35 32 32 37 46 54 58 63 70 80 92 104 110 111 113 115 118 121 121 118 111 103 94 87 84 83 80 79 81
65 64 64 64 64 63 62 61 60 60 59 57 56 55 55 56 58 57 56 53 50 45 41 36 32 30 30 36 44 50 55 62 70 80 92 103 108 109 111 115 119 120 119 117 113 106 97 91 87 85 83 82
65 65 64 63 64 63 61 60 59 59 58 56 55 55 54 55 56 56 55 52 49 44 40 36 32 30 28 29 33 40 47 53 60 69 79 91 102 106 108 111 116 118 117 116 116 114 109 102 96 92 89 86
65 65 64 63 63 63 61 60 58 57 57 56 55 54 54 55 55 55 54 51 48 44 40 36 32 30 28 27 29 33 39 45 52 60 69 79 91 101 106 109 113 116 116 114 114 116 115 112 106 100 96 92
66 66 65 64 62 62 61 59 58 56 55 54 53 53 54 54 54 54 53 51 47 43 39 35 32 29 28 27 28 30 33 37 43 50 58 68 78 89 99 106 111 114 116 115 114 114 113 114 114 110 104 99
66 66 65 64 63 62 61 59 57 56 55 53 52 51 52 54 54 54 53 50 47 43 39 35 32 29 28 28 28 29 31 33 36 40 47 56 65 75 86 97 106 112 114 115 115 113 112 113 113 114 112 106
66 66 66 64 63 62 61 60 58 55 54 53 51 49 50 52 53 53 52 50 47 43 40 36 33 30 28 28 28 28 29 30 32 34 39 45 54 63 72 83 95 105 111 114 115 113 112 111 109 111 115 113
66 66 66 65 63 62 61 60 58 55 53 52 50 48 48 50 51 52 51 49 47 43 40 37 34 31 29 28 28 28 28 29 29 31 33 38 45 53 61 69 79 92 103 110 113 112 110 110 109 108 110 115
66 66 66 65 63 62 61 59 58 56 53 52 50 48 47 48 50 51 50 49 47 43 40 37 34 32 29 28 28 28 29 29 29 29 30 33 38 45 52 59 65 75 88 100 109 112 110 108 108 107 106 109
Wind_Direction
325 324 323 322 319 316 315 314 315 316 314 312 308 296 282 267 252 242 233 229 233 235 232 230 228 228 227 228 232 234 237 241 244 244 244 244 246 245 243 241 238 235 235 235 234 234 235 235 234 233 233 233
327 326 325 324 321 318 317 317 317 319 318 317 316 308 291 274 259 246 237 228 225 228 230 228 225 223 220 220 225 229 232 235 237 239 239 238 242 244 243 243 242 239 236 236 235 233 234 235 234 232 232 233
328 328 327 325 323 321 318 318 319 320 321 320 320 317 302 282 267 252 241 232 224 223 225 225 222 218 213 211 214 219 224 226 228 232 234 232 234 239 241 241 242 242 240 238 237 236 234 235 235 233 232 232
329 329 328 327 325 323 320 319 320 321 322 322 322 322 312 290 273 260 248 237 227 222 222 222 221 218 212 208 208 211 215 217 221 227 230 228 226 229 233 236 238 240 240 239 238 238 237 237 236 233 231 231
330 330 329 328 327 325 322 321 321 321 323 323 323 324 319 300 278 266 254 243 233 225 222 220 218 217 215 211 209 209 211 213 216 220 225 226 223 221 224 228 232 233 233 233 234 235 237 238 238 235 231 230
330 330 330 329 328 327 325 322 322 322 323 324 324 324 324 312 286 270 260 249 238 229 224 221 217 215 215 214 212 211 212 213 215 216 219 221 220 218 219 222 225 226 225 226 228 230 233 236 237 237 234 231
331 331 331 330 329 328 327 325 323 323 323 324 325 325 325 319 298 274 264 254 244 233 225 223 222 219 217 216 213 212 213 214 215 216 217 219 219 218 218 219 221 223 223 224 227 231 233 235 237 237 236 234
331 331 331 331 330 329 329 327 325 324 324 325 325 326 325 323 309 282 267 259 249 239 229 224 224 225 223 220 216 213 212 214 215 215 217 220 221 221 219 217 218 220 221 222 225 230 233 234 235 236 236 236
330 331 332 331 330 330 329 329 327 325 325 325 326 326 326 324 315 293 271 263 255 244 234 226 225 227 227 224 219 215 213 214 215 214 214 217 220 222 221 218 217 218 219 220 222 225 229 232 233 235 235 234
329 330 331 331 331 330 330 330 329 327 326 325 326 327 326 325 318 301 278 265 259 250 240 231 226 227 228 228 224 219 217 217 216 215 212 213 216 219 220 219 217 216 217 221 225 227 227 228 229 232 233 232
327 329 330 330 330 330 330 330 330 329 327 326 327 327 327 326 320 305 286 269 261 256 246 236 229 227 227 229 228 224 222 220 219 217 213 211 213 216 218 218 217 217 217 220 225 229 231 229 226 227 230 232
327 328 329 329 330 330 330 330 330 329 328 327 327 328 328 327 322 307 290 275 264 258 252 243 234 228 226 228 230 228 226 224 222 220 216 212 212 215 217 218 217 217 216 217 220 224 229 230 229 227 226 229
326 327 328 328 329 329 329 329 330 330 329 328 328 329 328 328 325 311 293 281 269 260 256 249 239 232 227 226 228 230 229 227 225 223 220 216 216 217 217 218 217 216 215 214 215 217 221 226 230 229 226 225
327 327 327 327 327 328 328 329 329 330 329 328 329 330 329 328 327 317 297 284 275 264 257 252 245 236 230 227 227 230 231 230 228 226 224 222 221 220 219 218 218 217 215 213 213 215 218 221 225 226 225 225
328 327 327 326 326 326 327 328 329 330 330 329 329 330 330 330 328 322 304 287 278 268 260 254 249 241 234 229 227 229 231 232 230 229 228 226 224 224 220 218 218 218 216 214 212 213 215 218 219 221 222 223
329 328 328 327 326 326 327 327 329 330 330 330 330 331 331 331 330 325 313 296 282 271 263 256 251 245 239 232 228 228 230 232 232 230 230 229 227 226 222 218 216 216 217 216 214 212 212 214 215 216 217 219
329 329 328 327 326 325 326 327 328 330 330 330 330 331 332 332 332 329 320 306 293 278 265 258 252 247 242 236 230 228 229 231 232 231 231 231 230 228 225 220 217 215 215 216 216 215 213 212 212 213 213 215
329 329 328 328 327 326 326 326 327 329 330 331 331 331 333 333 333 333 327 316 305 292 274 261 253 248 243 239 234 230 228 230 232 232 232 233 233 230 227 224 220 218 216 215 216 217 215 212 211 212 212 213
329 329 329 328 327 326 326 326 327 329 330 331 331 332 333 334 334 335 332 323 314 306 289 269 256 249 243 240 237 233 229 229 231 233 233 233 234 233 230 227 225 223 221 217 216 217 217 214 212 212 213 214
329 329 328 328 328 327 326 326 326 328 330 331 331 332 333 334 335 336 335 330 321 315 304 284 264 252 245 240 237 235 232 229 230 233 234 234 234 234 232 230 228 227 225 223 219 219 220 218 216 214 215 217
329 329 328 328 328 327 326 326 326 327 329 331 331 332 333 334 336 336 336 334 327 321 314 299 277 260 249 243 238 236 234 231 230 232 235 235 235 235 234 233 231 230 228 226 224 223 222 221 218 217 217 218
329 329 328 328 327 327 327 326 326 327 329 331 332 332 333 334 336 337 337 336 332 326 321 311 293 272 256 247 242 238 235 234 231 231 234 236 236 235 234 234 234 233 231 229 227 225 224 221 217 216 217 217
330 329 328 327 327 327 327 326 326 327 328 330 332 332 333 334 335 337 337 337 334 329 325 320 308 289 268 254 247 243 239 236 234 232 233 235 237 236 235 234 235 235 234 232 230 227 226 224 218 214 215 215
330 329 328 327 327 327 327 327 327 327 328 330 331 332 333 334 335 336 337 337 335 331 327 323 316 304 285 266 254 249 245 242 239 235 233 234 236 236 235 235 235 236 236 234 232 230 228 227 223 217 215 214
330 329 328 327 326 326 326 326 326 327 328 329 330 332 333 333 334 336 337 337 335 331 327 323 317 310 299 283 267 257 252 249 245 241 237 234 234 235 235 235 236 237 236 236 235 233 230 229 227 224 220 217
329 329 328 327 326 325 325 326 326 326 327 329 330 331 332 333 333 335 337 337 335 332 327 322 315 309 302 292 280 269 261 256 251 247 242 238 235 235 235 234 235 236 237 236 235 235 233 231 229 228 226 223
329 329 328 326 325 324 325 325 326 326 326 327 329 330 331 332 333 334 336 336 335 332 327 321 314 306 299 292 283 276 270 264 258 253 248 244 239 236 235 234 234 235 236 236 236 235 235 233 231 230 230 228
329 328 327 326 325 324 324 325 325 325 325 326 328 329 330 331 332 333 334 335 335 332 328 322 315 307 298 291 285 279 275 270 265 259 253 249 245 241 238 236 234 234 235 236 236 235 235 235 233 231 230 230
328 328 327 325 324 323 323 324 325 325 324 325 327 328 329 329 331 332 332 333 334 332 328 323 317 309 300 292 286 281 277 274 270 264 257 251 247 245 242 240 237 235 234 235 236 236 236 235 235 232 230 230
327 328 327 325 324 323 323 323 323 324 324 324 325 326 327 328 329 330 331 332 332 331 328 324 319 311 304 295 288 283 279 276 274 270 263 255 248 245 244 243 240 238 236 235 235 237 236 235 235 234 231 230
327 327 326 325 323 322 322 322 322 323 323 323 324 325 326 327 328 329 330 330 331 330 328 325 320 314 306 298 290 285 281 277 275 272 268 262 253 247 244 243 242 241 239 237 236 236 237 236 235 235 233 231